Regional Weather Roundup
Issued by NWS

Home | Current Version | Previous Version | Text Only | Print | Product List | Glossary On
Versions: 1 2 3 4 5 6 7 8 9 10 11 12 13 14 15 16 17 18 19 20 21 22 23 24 25 26 27 28 29 30 31 32 33 34 35 36 37 38 39 40 41 42 43 44 45 46 47 48 49 50
000
ASCA44 KEWX 211420
RWRMX

LATIN AMERICA AND CARIBBEAN REGIONAL WEATHER ROUNDUP
NATIONAL WEATHER SERVICE AUSTIN/SAN ANTONIO TX
800 AM CST SUN DEC 21 2014

NOTE: "FAIR" INDICATED FEW OR NO CLOUDS BELOW 12,000 FEET WITH NO
SIGNIFICANT WEATHER AND/OR OBSTRUCTIONS TO VISIBILITY.

BAJA CALIFORNIA

CITY           SKY/WX    TMP DP  RH WIND       PRES   REMARKS
TIJUANA        CLEAR     54  46  76 SE5       30.13R

NORTHWESTERN MEXICO

CITY           SKY/WX    TMP DP  RH WIND       PRES   REMARKS
CULIACAN       CLEAR     54  50  87 CALM      29.98
DURANGO        PTCLDY    25  16  68 NW6       30.22R WCI  18
GUAYMAS        PTCLDY    59  45  58 CALM      29.99
HERMOSILLO     CLEAR     45  39  81 CALM      30.05
CD. JUAREZ     PTCLDY    39  32  75 S7        30.03  WCI  34
LOS MOCHIS     MOCLDY    52  48  87 CALM      30.01
OBREGON        PTCLDY    46  37  71 E2        29.98

NORTHEASTERN MEXICO

CITY           SKY/WX    TMP DP  RH WIND       PRES   REMARKS
CHIHUAHUA      CLEAR     28  19  69 S8        30.13  WCI  20
MATAMOROS      DRIZZLE   57  57 100 NW7       30.09
MONCLOVA       CLOUDY    52  50  93 CALM      30.06  FOG
MONTERREY      FOG       52  50  93 E3        30.08S VSB 1/4
NUEVO LAREDO   CLOUDY    54  50  87 CALM      30.11  FOG
PIEDRAS NEGRAS FOG       48  45  87 SE7       30.11  VSB 1   WCI  45
REYNOSA        DRZL/FOG  52  50  93 NW7       30.09  VSB 1
SALTILLO       FOG       46  43  87 CALM      30.17R VSB 3/4
TORREON        CLEAR     41  37  87 CALM      30.12R FOG
CD. VICTORIA   CLOUDY    57  57 100 CALM      30.08

WESTERN MEXICO

CITY           SKY/WX    TMP DP  RH WIND       PRES   REMARKS
AGUASCALIENTES MOCLDY    43  36  75 N6        30.26  WCI  39
COLIMA         PTCLDY    70  54  56 N7        30.05R
DEL BAJIO      MOCLDY    50  45  81 CALM      30.29R
GUADALAJARA    MOCLDY    48  41  76 CALM      30.19
MANZANILLO     MOCLDY    70  61  73 N6        29.89
MAZATLAN       PTCLDY    52  48  87 N6        29.95R
P. VALLARTA    MOCLDY    68  64  88 E6        29.93F
URUAPAN        MOCLDY    54  50  87 CALM      30.19R
ZACATECAS      PTCLDY    32  19  59 S12       30.24S WCI  23

CENTRAL MEXICO

CITY           SKY/WX    TMP DP  RH WIND       PRES   REMARKS
CUERNAVACA     PTSUNNY   61  45  55 CALM      30.17R
MEXICO CITY    CLOUDY    52  41  66 CALM      30.32R
MORELIA        MOCLDY    46  41  81 CALM      30.24
POZA RICA      LGT RAIN  64  64 100 CALM      30.09R VSB 3/4
PUEBLA         CLOUDY    43  39  87 NW7       30.30S WCI  39
QUERETARO      MOCLDY    46  43  87 SW3       30.29R
S. LUIS POTOSI CLOUDY    48  48 100 CALM      30.23R FOG
TAMPICO        CLOUDY    63  63 100 NW7       30.06R FOG
TOLUCA         CLOUDY    32  30  93 CALM      30.40R FOG

SOUTHERN MEXICO

CITY           SKY/WX    TMP DP  RH WIND       PRES   REMARKS
ACAPULCO       PTSUNNY   73  70  88 N7        29.94R
B. DE HUATULCO MOSUNNY   73  66  78 CALM      29.99
OAXACA         PTSUNNY   55  52  88 N6        30.26R
P. ESCONDIDO   MOSUNNY   73  68  83 E12       30.06S
VERACRUZ       CLOUDY    72  66  83 N5        30.03R
ZIHUATANEJO    MOCLDY    66  61  82 CALM        N/A

YUCATAN PENINSULA

CITY           SKY/WX    TMP DP  RH WIND       PRES   REMARKS
CAMPECHE       FOG       70  70 100 CALM      29.99R VSB 1/8
CANCUN         CLOUDY    73  73 100 CALM      30.02R FOG
CHETUMAL       PTSUNNY   75  64  69 CALM      30.00R
CD. DEL CARMEN PTSUNNY   73  72  94 CALM      30.01
COZUMEL        MOSUNNY   73  73 100 W5        30.02R
MERIDA         PTSUNNY   72  72 100 CALM      30.02S FOG
MINATITLAN     PTSUNNY   68  64  88 CALM      30.00
TAPACHULA      SUNNY     75  70  83 CALM      29.94R
TUX. GUTIERREZ PTSUNNY   64  63  94 N2        30.06R FOG
VILLAHERMOSA   MOSUNNY   73  72  94 E7        30.03R

CENTRAL AMERICA

CITY           SKY/WX    TMP DP  RH WIND       PRES   REMARKS
BELIZE CITY    MOSUNNY   75  73  94 W5        30.02R
MANAGUA        MOSUNNY   79  66  65 E9        29.92R

CARIBBEAN

CITY           SKY/WX    TMP DP  RH WIND       PRES   REMARKS
ARUBA          MOSUNNY   88  75  66 E17       29.94S HX  97
CURACAO        MOSUNNY   84  75  74 E14       29.97S HX  92
KINGSTON       MOSUNNY   81  70  69 NW7       30.00S
NASSAU         MOSUNNY   73  64  73 CALM      30.14R
SAN JUAN       MOSUNNY   82  70  65 E17       30.11R
SANTO DOMINGO  MOSUNNY   77  70  78 N5        30.09R
ST. KITTS      MOSUNNY   82  75  78 NE14      30.06S

$$



USA.gov is the U.S. government's official web portal to all federal, state and local government web resources and services.